Time,TemperatureF,DewpointF,PressureIn,WindDirection,WindDirectionDegrees,WindSpeedMPH,WindSpeedGustMPH,Humidity,HourlyPrecipIn,Conditions,Clouds,dailyrainin,SolarRadiationWatts/m^2,SoftwareType,DateUTC
2013-08-20 00:01:00,63.3,41.0,30.63,WSW,254,0.0,3.0,44,0.00,,,0.00,0.00,VWS V14.00,2013-08-20 06:01:00,
2013-08-20 00:06:00,62.9,41.8,30.63,WSW,254,0.0,3.0,46,0.00,,,0.00,0.00,VWS V14.00,2013-08-20 06:06:00,
2013-08-20 00:11:00,62.5,40.9,30.60,WSW,254,0.0,0.0,45,0.00,,,0.00,0.00,VWS V14.00,2013-08-20 06:11:00,
2013-08-20 00:16:00,62.3,40.1,30.61,WSW,254,0.0,1.0,44,0.00,,,0.00,0.00,VWS V14.00,2013-08-20 06:16:00,
2013-08-20 00:21:00,62.5,41.5,30.61,WSW,254,0.0,1.0,46,0.00,,,0.00,0.00,VWS V14.00,2013-08-20 06:21:00,
2013-08-20 00:26:00,62.9,40.7,30.60,WSW,254,0.0,0.0,44,0.00,,,0.00,0.00,VWS V14.00,2013-08-20 06:26:00,
2013-08-20 00:31:00,63.4,41.1,30.60,WSW,254,0.0,0.0,44,0.00,,,0.00,0.00,VWS V14.00,2013-08-20 06:31:00,
2013-08-20 00:36:00,64.0,42.8,30.60,WSW,254,0.0,0.0,46,0.00,,,0.00,0.00,VWS V14.00,2013-08-20 06:36:00,
2013-08-20 00:41:00,64.2,44.1,30.60,WSW,254,0.0,1.0,48,0.00,,,0.00,0.00,VWS V14.00,2013-08-20 06:41:00,
2013-08-20 00:46:00,63.9,43.8,30.60,WSW,254,0.0,1.0,48,0.00,,,0.00,0.00,VWS V14.00,2013-08-20 06:46:00,
2013-08-20 00:51:00,63.9,42.7,30.60,WSW,254,0.0,1.0,46,0.00,,,0.00,0.00,VWS V14.00,2013-08-20 06:51:00,
2013-08-20 00:56:00,64.3,41.9,30.60,WSW,254,0.0,0.0,44,0.00,,,0.00,0.00,VWS V14.00,2013-08-20 06:56:00,
2013-08-20 01:01:00,65.0,42.0,30.60,WSW,254,0.0,0.0,43,0.00,,,0.00,0.00,VWS V14.00,2013-08-20 07:01:00,
2013-08-20 01:06:00,65.3,45.1,30.59,WSW,253,0.0,3.0,48,0.00,,,0.00,0.00,VWS V14.00,2013-08-20 07:06:00,
2013-08-20 01:11:00,64.0,45.0,30.59,WSW,253,0.0,0.0,50,0.00,,,0.00,0.00,VWS V14.00,2013-08-20 07:11:00,
2013-08-20 01:16:00,63.2,44.3,30.60,WSW,253,0.0,0.0,50,0.00,,,0.00,0.00,VWS V14.00,2013-08-20 07:16:00,
2013-08-20 01:21:00,63.0,43.6,30.60,WSW,253,0.0,1.0,49,0.00,,,0.00,0.00,VWS V14.00,2013-08-20 07:21:00,
2013-08-20 01:26:00,63.3,43.3,30.60,WSW,253,0.0,0.0,48,0.00,,,0.00,0.00,VWS V14.00,2013-08-20 07:26:00,
2013-08-20 01:31:00,63.6,45.7,30.59,WSW,253,0.0,0.0,52,0.00,,,0.00,0.00,VWS V14.00,2013-08-20 07:31:00,
2013-08-20 01:36:00,63.4,45.0,30.60,WSW,253,0.0,4.0,51,0.00,,,0.00,0.00,VWS V14.00,2013-08-20 07:36:00,
2013-08-20 01:41:00,62.8,44.4,30.60,South,188,2.0,4.0,51,0.00,,,0.00,0.00,VWS V14.00,2013-08-20 07:41:00,
2013-08-20 01:46:00,61.9,44.1,30.60,South,188,0.0,4.0,52,0.00,,,0.00,0.00,VWS V14.00,2013-08-20 07:46:00,
2013-08-20 01:51:00,61.0,44.2,30.61,South,188,0.0,4.0,54,0.00,,,0.00,0.00,VWS V14.00,2013-08-20 07:51:00,
2013-08-20 01:56:00,60.5,44.3,30.61,South,188,0.0,1.0,55,0.00,,,0.00,0.00,VWS V14.00,2013-08-20 07:56:00,
2013-08-20 02:01:00,60.0,45.2,30.61,South,188,0.0,1.0,58,0.00,,,0.00,0.00,VWS V14.00,2013-08-20 08:01:00,
2013-08-20 02:06:00,59.5,44.7,30.61,South,188,0.0,1.0,58,0.00,,,0.00,0.00,VWS V14.00,2013-08-20 08:06:00,
2013-08-20 02:11:00,59.0,44.7,30.61,South,188,0.0,0.0,59,0.00,,,0.00,0.00,VWS V14.00,2013-08-20 08:11:00,
2013-08-20 02:16:00,59.0,44.3,30.61,South,188,0.0,1.0,58,0.00,,,0.00,0.00,VWS V14.00,2013-08-20 08:16:00,
2013-08-20 02:21:00,59.0,43.8,30.61,South,188,0.0,1.0,57,0.00,,,0.00,0.00,VWS V14.00,2013-08-20 08:21:00,
2013-08-20 02:26:00,59.1,44.3,30.61,South,187,0.0,0.0,58,0.00,,,0.00,0.00,VWS V14.00,2013-08-20 08:26:00,
2013-08-20 02:31:00,59.8,43.1,30.61,South,188,0.0,1.0,54,0.00,,,0.00,0.00,VWS V14.00,2013-08-20 08:31:00,
2013-08-20 02:36:00,60.4,44.7,30.60,South,188,0.0,4.0,56,0.00,,,0.00,0.00,VWS V14.00,2013-08-20 08:36:00,
2013-08-20 02:41:00,60.0,44.3,30.61,South,188,0.0,3.0,56,0.00,,,0.00,0.00,VWS V14.00,2013-08-20 08:41:00,
2013-08-20 02:47:00,59.4,44.6,30.61,South,187,0.0,3.0,58,0.00,,,0.00,0.00,VWS V14.00,2013-08-20 08:47:00,
2013-08-20 02:52:00,59.8,43.6,30.61,South,187,0.0,3.0,55,0.00,,,0.00,0.00,VWS V14.00,2013-08-20 08:52:00,
2013-08-20 02:57:00,60.5,43.3,30.61,South,187,0.0,0.0,53,0.00,,,0.00,0.00,VWS V14.00,2013-08-20 08:57:00,
2013-08-20 03:02:00,61.1,43.9,30.61,South,187,0.0,0.0,53,0.00,,,0.00,0.00,VWS V14.00,2013-08-20 09:02:00,
2013-08-20 03:07:00,61.5,43.2,30.61,South,188,0.0,0.0,51,0.00,,,0.00,0.00,VWS V14.00,2013-08-20 09:07:00,
2013-08-20 03:12:00,61.5,44.7,30.61,South,188,0.0,2.0,54,0.00,,,0.00,0.00,VWS V14.00,2013-08-20 09:12:00,
2013-08-20 03:17:00,60.9,44.6,30.62,South,187,0.0,2.0,55,0.00,,,0.00,0.00,VWS V14.00,2013-08-20 09:17:00,
2013-08-20 03:22:00,59.9,44.2,30.62,South,188,0.0,3.0,56,0.00,,,0.00,0.00,VWS V14.00,2013-08-20 09:22:00,
2013-08-20 03:27:00,59.3,45.0,30.62,South,188,0.0,0.0,59,0.00,,,0.00,0.00,VWS V14.00,2013-08-20 09:27:00,
2013-08-20 03:32:00,59.0,45.2,30.63,South,187,0.0,1.0,60,0.00,,,0.00,0.00,VWS V14.00,2013-08-20 09:32:00,
2013-08-20 03:37:00,58.1,44.7,30.63,South,188,0.0,4.0,61,0.00,,,0.00,0.00,VWS V14.00,2013-08-20 09:37:00,
2013-08-20 03:42:00,57.6,44.3,30.63,South,188,0.0,0.0,61,0.00,,,0.00,0.00,VWS V14.00,2013-08-20 09:42:00,
2013-08-20 03:47:00,57.2,44.7,30.63,South,188,0.0,4.0,63,0.00,,,0.00,0.00,VWS V14.00,2013-08-20 09:47:00,
2013-08-20 03:52:00,56.7,44.3,30.64,South,188,0.0,4.0,63,0.00,,,0.00,0.00,VWS V14.00,2013-08-20 09:52:00,
2013-08-20 03:57:00,56.0,43.2,30.64,South,188,0.0,2.0,62,0.00,,,0.00,0.00,VWS V14.00,2013-08-20 09:57:00,
2013-08-20 04:02:00,56.0,44.0,30.64,South,188,0.0,2.0,64,0.00,,,0.00,0.00,VWS V14.00,2013-08-20 10:02:00,
2013-08-20 04:07:00,56.0,44.0,30.64,South,188,0.0,2.0,64,0.00,,,0.00,0.00,VWS V14.00,2013-08-20 10:07:00,
2013-08-20 04:12:00,56.1,44.5,30.64,South,188,0.0,0.0,65,0.00,,,0.00,0.00,VWS V14.00,2013-08-20 10:12:00,
2013-08-20 04:17:00,56.0,44.0,30.64,South,187,0.0,0.0,64,0.00,,,0.00,0.00,VWS V14.00,2013-08-20 10:17:00,
2013-08-20 04:22:00,56.0,43.6,30.64,South,188,2.0,2.0,63,0.00,,,0.00,0.00,VWS V14.00,2013-08-20 10:22:00,
2013-08-20 04:27:00,56.0,43.2,30.64,South,184,3.0,3.0,62,0.00,,,0.00,0.00,VWS V14.00,2013-08-20 10:27:00,
2013-08-20 04:32:00,56.0,43.6,30.64,South,184,0.0,3.0,63,0.00,,,0.00,0.00,VWS V14.00,2013-08-20 10:32:00,
2013-08-20 04:37:00,56.1,44.1,30.64,South,183,0.0,3.0,64,0.00,,,0.00,0.00,VWS V14.00,2013-08-20 10:37:00,
2013-08-20 04:42:00,56.0,43.2,30.64,South,184,0.0,4.0,62,0.00,,,0.00,0.00,VWS V14.00,2013-08-20 10:42:00,
2013-08-20 04:47:00,55.9,43.5,30.64,South,183,0.0,4.0,63,0.00,,,0.00,0.00,VWS V14.00,2013-08-20 10:47:00,
2013-08-20 04:52:00,55.9,43.1,30.64,South,184,0.0,4.0,62,0.00,,,0.00,0.00,VWS V14.00,2013-08-20 10:52:00,
2013-08-20 04:57:00,56.2,43.0,30.64,South,182,0.0,1.0,61,0.00,,,0.00,0.00,VWS V14.00,2013-08-20 10:57:00,
2013-08-20 05:02:00,56.5,43.2,30.65,South,182,0.0,3.0,61,0.00,,,0.00,0.00,VWS V14.00,2013-08-20 11:02:00,
2013-08-20 05:07:00,56.8,43.1,30.65,South,182,0.0,3.0,60,0.00,,,0.00,0.00,VWS V14.00,2013-08-20 11:07:00,
2013-08-20 05:12:00,57.2,43.0,30.65,South,182,0.0,3.0,59,0.00,,,0.00,0.00,VWS V14.00,2013-08-20 11:12:00,
2013-08-20 05:17:00,57.3,43.1,30.65,South,182,0.0,3.0,59,0.00,,,0.00,0.00,VWS V14.00,2013-08-20 11:17:00,
2013-08-20 05:22:00,57.3,44.0,30.65,South,182,0.0,3.0,61,0.00,,,0.00,0.00,VWS V14.00,2013-08-20 11:22:00,
2013-08-20 05:27:00,57.1,43.8,30.65,South,182,0.0,1.0,61,0.00,,,0.00,0.00,VWS V14.00,2013-08-20 11:27:00,
2013-08-20 05:32:00,56.8,43.5,30.65,South,182,0.0,1.0,61,0.00,,,0.00,0.00,VWS V14.00,2013-08-20 11:32:00,
2013-08-20 05:37:00,56.4,44.0,30.65,NW,311,0.0,4.0,63,0.00,,,0.00,0.00,VWS V14.00,2013-08-20 11:37:00,
2013-08-20 05:42:00,55.8,43.8,30.65,NW,312,0.0,0.0,64,0.00,,,0.00,0.00,VWS V14.00,2013-08-20 11:42:00,
2013-08-20 05:47:00,55.4,43.4,30.66,NW,312,0.0,1.0,64,0.00,,,0.00,0.00,VWS V14.00,2013-08-20 11:47:00,
2013-08-20 05:52:00,55.2,43.7,30.67,NW,312,0.0,1.0,65,0.00,,,0.00,0.00,VWS V14.00,2013-08-20 11:52:00,
2013-08-20 05:57:00,55.1,42.8,30.67,NW,312,0.0,0.0,63,0.00,,,0.00,0.00,VWS V14.00,2013-08-20 11:57:00,
2013-08-20 06:02:00,55.1,43.6,30.67,NW,313,0.0,0.0,65,0.00,,,0.00,0.00,VWS V14.00,2013-08-20 12:02:00,
2013-08-20 06:07:00,55.1,42.8,30.67,NW,312,0.0,0.0,63,0.00,,,0.00,0.00,VWS V14.00,2013-08-20 12:07:00,
2013-08-20 06:12:00,55.2,42.8,30.69,NW,311,0.0,0.0,63,0.00,,,0.00,0.00,VWS V14.00,2013-08-20 12:12:00,
2013-08-20 06:17:00,55.3,42.9,30.69,NW,311,0.0,0.0,63,0.00,,,0.00,0.00,VWS V14.00,2013-08-20 12:17:00,
2013-08-20 06:22:00,55.4,43.0,30.70,NW,312,0.0,0.0,63,0.00,,,0.00,0.00,VWS V14.00,2013-08-20 12:22:00,
2013-08-20 06:27:00,55.4,43.0,30.70,NW,313,0.0,0.0,63,0.00,,,0.00,0.00,VWS V14.00,2013-08-20 12:27:00,
2013-08-20 06:32:00,55.5,43.5,30.69,NW,311,0.0,1.0,64,0.00,,,0.00,0.00,VWS V14.00,2013-08-20 12:32:00,
2013-08-20 06:37:00,55.6,43.2,30.69,NW,312,0.0,1.0,63,0.00,,,0.00,0.00,VWS V14.00,2013-08-20 12:37:00,
2013-08-20 06:42:00,55.6,43.2,30.69,NW,313,0.0,1.0,63,0.00,,,0.00,0.00,VWS V14.00,2013-08-20 12:42:00,
2013-08-20 06:47:00,55.5,43.1,30.70,NW,311,0.0,1.0,63,0.00,,,0.00,5.00,VWS V14.00,2013-08-20 12:47:00,
2013-08-20 06:52:00,55.5,43.1,30.70,NW,312,0.0,1.0,63,0.00,,,0.00,5.00,VWS V14.00,2013-08-20 12:52:00,
2013-08-20 06:57:00,55.5,43.5,30.70,NW,312,0.0,0.0,64,0.00,,,0.00,7.00,VWS V14.00,2013-08-20 12:57:00,
2013-08-20 07:02:00,55.4,43.4,30.70,NW,311,0.0,0.0,64,0.00,,,0.00,11.00,VWS V14.00,2013-08-20 13:02:00,
2013-08-20 07:07:00,55.4,42.6,30.71,NW,311,0.0,0.0,62,0.00,,,0.00,12.00,VWS V14.00,2013-08-20 13:07:00,
2013-08-20 07:12:00,55.4,43.0,30.73,NW,312,0.0,0.0,63,0.00,,,0.00,14.00,VWS V14.00,2013-08-20 13:12:00,
2013-08-20 07:17:00,55.3,44.2,30.72,NW,311,0.0,0.0,66,0.00,,,0.00,16.00,VWS V14.00,2013-08-20 13:17:00,
2013-08-20 07:22:00,55.0,44.3,30.73,NW,311,0.0,0.0,67,0.00,,,0.00,18.00,VWS V14.00,2013-08-20 13:22:00,
2013-08-20 07:27:00,54.9,44.2,30.73,NW,313,0.0,0.0,67,0.00,,,0.00,19.00,VWS V14.00,2013-08-20 13:27:00,
2013-08-20 07:32:00,54.8,44.5,30.73,NW,312,0.0,0.0,68,0.00,,,0.00,23.00,VWS V14.00,2013-08-20 13:32:00,
2013-08-20 07:37:00,54.6,45.0,30.73,NW,311,0.0,0.0,70,0.00,,,0.00,23.00,VWS V14.00,2013-08-20 13:37:00,
2013-08-20 07:42:00,54.5,44.5,30.73,NW,312,0.0,1.0,69,0.00,,,0.00,25.00,VWS V14.00,2013-08-20 13:42:00,
2013-08-20 07:47:00,54.4,44.8,30.73,NW,313,0.0,1.0,70,0.00,,,0.00,25.00,VWS V14.00,2013-08-20 13:47:00,
2013-08-20 07:52:00,54.3,45.1,30.73,NW,311,0.0,1.0,71,0.00,,,0.00,26.00,VWS V14.00,2013-08-20 13:52:00,
2013-08-20 07:57:00,54.3,45.1,30.73,NW,311,0.0,0.0,71,0.00,,,0.00,28.00,VWS V14.00,2013-08-20 13:57:00,
2013-08-20 08:02:00,54.5,46.0,30.73,NW,313,0.0,0.0,73,0.00,,,0.00,28.00,VWS V14.00,2013-08-20 14:02:00,
2013-08-20 08:07:00,54.8,46.0,30.73,NW,312,0.0,0.0,72,0.00,,,0.00,30.00,VWS V14.00,2013-08-20 14:07:00,
2013-08-20 08:12:00,55.2,44.0,30.76,NW,312,0.0,0.0,66,0.00,,,0.00,30.00,VWS V14.00,2013-08-20 14:12:00,
2013-08-20 08:17:00,55.4,45.4,30.75,NW,312,0.0,0.0,69,0.00,,,0.00,32.00,VWS V14.00,2013-08-20 14:17:00,
2013-08-20 08:22:00,55.8,46.5,30.76,NW,311,0.0,0.0,71,0.00,,,0.00,113.00,VWS V14.00,2013-08-20 14:22:00,
2013-08-20 08:27:00,56.0,46.0,30.76,NW,311,0.0,0.0,69,0.00,,,0.00,236.00,VWS V14.00,2013-08-20 14:27:00,
2013-08-20 08:32:00,56.4,44.4,30.75,NW,312,0.0,0.0,64,0.00,,,0.00,250.00,VWS V14.00,2013-08-20 14:32:00,
2013-08-20 08:37:00,56.7,44.7,30.75,NW,312,0.0,0.0,64,0.00,,,0.00,248.00,VWS V14.00,2013-08-20 14:37:00,
2013-08-20 08:42:00,57.3,44.8,30.75,NW,311,0.0,0.0,63,0.00,,,0.00,70.00,VWS V14.00,2013-08-20 14:42:00,
2013-08-20 08:47:00,57.9,45.4,30.75,NW,307,0.0,1.0,63,0.00,,,0.00,76.00,VWS V14.00,2013-08-20 14:47:00,
2013-08-20 08:52:00,58.3,45.8,30.74,NW,306,0.0,4.0,63,0.00,,,0.00,125.00,VWS V14.00,2013-08-20 14:52:00,
2013-08-20 08:57:00,58.6,46.1,30.74,NW,306,0.0,0.0,63,0.00,,,0.00,56.00,VWS V14.00,2013-08-20 14:57:00,
2013-08-20 09:02:00,58.9,45.9,30.74,NW,306,0.0,2.0,62,0.00,,,0.00,44.00,VWS V14.00,2013-08-20 15:02:00,
2013-08-20 09:07:00,59.0,46.0,30.74,NW,306,0.0,2.0,62,0.00,,,0.00,47.00,VWS V14.00,2013-08-20 15:07:00,
2013-08-20 09:12:00,59.7,46.2,30.77,NW,306,0.0,0.0,61,0.00,,,0.00,40.00,VWS V14.00,2013-08-20 15:12:00,
2013-08-20 09:17:00,60.1,46.6,30.77,NW,306,0.0,3.0,61,0.00,,,0.00,42.00,VWS V14.00,2013-08-20 15:17:00,
2013-08-20 09:22:00,60.5,47.4,30.77,NW,304,0.0,3.0,62,0.00,,,0.00,42.00,VWS V14.00,2013-08-20 15:22:00,
2013-08-20 09:27:00,60.9,46.5,30.76,NW,304,0.0,0.0,59,0.00,,,0.00,42.00,VWS V14.00,2013-08-20 15:27:00,
2013-08-20 09:32:00,61.1,46.7,30.76,NW,304,0.0,0.0,59,0.00,,,0.00,44.00,VWS V14.00,2013-08-20 15:32:00,
2013-08-20 09:37:00,61.4,46.5,30.76,WNW,303,0.0,1.0,58,0.00,,,0.00,49.00,VWS V14.00,2013-08-20 15:37:00,
2013-08-20 09:42:00,61.8,46.4,30.76,NW,304,0.0,0.0,57,0.00,,,0.00,54.00,VWS V14.00,2013-08-20 15:42:00,
2013-08-20 09:47:00,62.1,46.2,30.76,NW,304,0.0,0.0,56,0.00,,,0.00,54.00,VWS V14.00,2013-08-20 15:47:00,
2013-08-20 09:52:00,62.8,45.9,30.76,NW,304,0.0,1.0,54,0.00,,,0.00,49.00,VWS V14.00,2013-08-20 15:52:00,
2013-08-20 09:57:00,63.8,47.8,30.75,WNW,303,0.0,3.0,56,0.00,,,0.00,51.00,VWS V14.00,2013-08-20 15:57:00,
2013-08-20 10:02:00,64.5,48.0,30.75,NW,304,0.0,3.0,55,0.00,,,0.00,345.00,VWS V14.00,2013-08-20 16:02:00,
2013-08-20 10:07:00,65.0,47.0,30.74,NW,306,2.0,4.0,52,0.00,,,0.00,162.00,VWS V14.00,2013-08-20 16:07:00,
2013-08-20 10:12:00,65.6,47.5,30.74,NW,306,0.0,3.0,52,0.00,,,0.00,483.00,VWS V14.00,2013-08-20 16:12:00,
2013-08-20 10:17:00,66.1,49.0,30.74,NW,307,0.0,3.0,54,0.00,,,0.00,536.00,VWS V14.00,2013-08-20 16:17:00,
2013-08-20 10:22:00,66.7,48.0,30.73,NNW,328,4.0,5.0,51,0.00,,,0.00,550.00,VWS V14.00,2013-08-20 16:22:00,
2013-08-20 10:27:00,67.5,48.2,30.73,NNW,342,0.0,4.0,50,0.00,,,0.00,561.00,VWS V14.00,2013-08-20 16:27:00,
2013-08-20 10:32:00,68.3,49.0,30.73,NNW,342,3.0,5.0,50,0.00,,,0.00,573.00,VWS V14.00,2013-08-20 16:32:00,
2013-08-20 10:37:00,69.1,47.5,30.72,NNW,342,0.0,5.0,46,0.00,,,0.00,584.00,VWS V14.00,2013-08-20 16:37:00,
2013-08-20 10:42:00,69.9,48.8,30.72,NNW,344,5.0,5.0,47,0.00,,,0.00,596.00,VWS V14.00,2013-08-20 16:42:00,
2013-08-20 10:47:00,70.5,47.6,30.72,NNW,340,3.0,7.0,44,0.00,,,0.00,606.00,VWS V14.00,2013-08-20 16:47:00,
2013-08-20 10:52:00,71.1,48.7,30.70,NNW,342,3.0,7.0,45,0.00,,,0.00,615.00,VWS V14.00,2013-08-20 16:52:00,
2013-08-20 10:57:00,71.7,50.4,30.70,NNW,342,6.0,6.0,47,0.00,,,0.00,626.00,VWS V14.00,2013-08-20 16:57:00,
2013-08-20 11:02:00,72.2,49.7,30.70,NNW,333,3.0,7.0,45,0.00,,,0.00,636.00,VWS V14.00,2013-08-20 17:02:00,
2013-08-20 11:07:00,72.7,50.2,30.69,NNW,344,2.0,7.0,45,0.00,,,0.00,649.00,VWS V14.00,2013-08-20 17:07:00,
2013-08-20 11:12:00,73.1,50.5,30.70,NNW,346,3.0,5.0,45,0.00,,,0.00,656.00,VWS V14.00,2013-08-20 17:12:00,
2013-08-20 11:17:00,73.5,49.0,30.70,NNW,345,0.0,5.0,42,0.00,,,0.00,664.00,VWS V14.00,2013-08-20 17:17:00,
2013-08-20 11:22:00,73.9,50.0,30.70,NNW,338,5.0,6.0,43,0.00,,,0.00,675.00,VWS V14.00,2013-08-20 17:22:00,
2013-08-20 11:27:00,74.2,50.3,30.70,NNW,340,0.0,7.0,43,0.00,,,0.00,684.00,VWS V14.00,2013-08-20 17:27:00,
2013-08-20 11:32:00,74.4,51.1,30.70,NNW,344,0.0,7.0,44,0.00,,,0.00,696.00,VWS V14.00,2013-08-20 17:32:00,
2013-08-20 11:37:00,75.1,51.1,30.69,NNW,346,5.0,7.0,43,0.00,,,0.00,703.00,VWS V14.00,2013-08-20 17:37:00,
2013-08-20 11:42:00,75.6,50.3,30.68,NNW,344,2.0,6.0,41,0.00,,,0.00,712.00,VWS V14.00,2013-08-20 17:42:00,
2013-08-20 11:47:00,76.3,49.5,30.68,NNW,340,6.0,7.0,39,0.00,,,0.00,719.00,VWS V14.00,2013-08-20 17:47:00,
2013-08-20 11:52:00,76.6,49.8,30.67,NNW,346,0.0,7.0,39,0.00,,,0.00,726.00,VWS V14.00,2013-08-20 17:52:00,
2013-08-20 11:57:00,77.1,50.9,30.67,NNW,346,5.0,7.0,40,0.00,,,0.00,733.00,VWS V14.00,2013-08-20 17:57:00,
2013-08-20 12:02:00,77.4,49.8,30.67,NNW,341,4.0,9.0,38,0.00,,,0.00,742.00,VWS V14.00,2013-08-20 18:02:00,
2013-08-20 12:07:00,77.7,50.8,30.67,NNW,348,3.0,9.0,39,0.00,,,0.00,745.00,VWS V14.00,2013-08-20 18:07:00,
2013-08-20 12:12:00,77.9,51.0,30.66,North,350,6.0,7.0,39,0.00,,,0.00,754.00,VWS V14.00,2013-08-20 18:12:00,
2013-08-20 12:17:00,78.2,51.2,30.66,North,355,6.0,7.0,39,0.00,,,0.00,758.00,VWS V14.00,2013-08-20 18:17:00,
2013-08-20 12:22:00,78.4,50.0,30.65,North,350,2.0,7.0,37,0.00,,,0.00,761.00,VWS V14.00,2013-08-20 18:22:00,
2013-08-20 12:27:00,78.7,51.0,30.64,North,355,0.0,6.0,38,0.00,,,0.00,770.00,VWS V14.00,2013-08-20 18:27:00,
2013-08-20 12:32:00,78.8,50.4,30.64,North,349,0.0,6.0,37,0.00,,,0.00,773.00,VWS V14.00,2013-08-20 18:32:00,
2013-08-20 12:37:00,79.3,51.5,30.64,North,349,0.0,6.0,38,0.00,,,0.00,780.00,VWS V14.00,2013-08-20 18:37:00,
2013-08-20 12:42:00,79.7,48.1,30.64,NNW,337,0.0,6.0,33,0.00,,,0.00,782.00,VWS V14.00,2013-08-20 18:42:00,
2013-08-20 12:47:00,80.1,50.8,30.64,North,350,5.0,6.0,36,0.00,,,0.00,786.00,VWS V14.00,2013-08-20 18:47:00,
2013-08-20 12:52:00,80.4,50.3,30.64,North,349,2.0,7.0,35,0.00,,,0.00,789.00,VWS V14.00,2013-08-20 18:52:00,
2013-08-20 12:57:00,80.6,49.7,30.63,NNW,346,0.0,5.0,34,0.00,,,0.00,796.00,VWS V14.00,2013-08-20 18:57:00,
2013-08-20 13:02:00,81.0,49.2,30.62,NNW,346,0.0,5.0,33,0.00,,,0.00,796.00,VWS V14.00,2013-08-20 19:02:00,
2013-08-20 13:07:00,81.6,50.5,30.62,NNW,346,0.0,5.0,34,0.00,,,0.00,803.00,VWS V14.00,2013-08-20 19:07:00,
2013-08-20 13:12:00,82.4,49.6,30.65,NNW,346,0.0,3.0,32,0.00,,,0.00,805.00,VWS V14.00,2013-08-20 19:12:00,
2013-08-20 13:17:00,83.0,51.0,30.64,NNW,346,0.0,5.0,33,0.00,,,0.00,803.00,VWS V14.00,2013-08-20 19:17:00,
2013-08-20 13:22:00,83.6,48.9,30.64,North,355,0.0,5.0,30,0.00,,,0.00,807.00,VWS V14.00,2013-08-20 19:22:00,
2013-08-20 13:27:00,84.0,53.4,30.63,North,355,0.0,1.0,35,0.00,,,0.00,802.00,VWS V14.00,2013-08-20 19:27:00,
2013-08-20 13:32:00,84.7,50.8,30.62,North,355,0.0,3.0,31,0.00,,,0.00,803.00,VWS V14.00,2013-08-20 19:32:00,
2013-08-20 13:37:00,85.2,54.5,30.62,North,355,0.0,4.0,35,0.00,,,0.00,809.00,VWS V14.00,2013-08-20 19:37:00,
2013-08-20 13:42:00,85.4,49.6,30.62,North,355,0.0,4.0,29,0.00,,,0.00,805.00,VWS V14.00,2013-08-20 19:42:00,
2013-08-20 13:47:00,85.7,49.8,30.62,North,350,0.0,6.0,29,0.00,,,0.00,803.00,VWS V14.00,2013-08-20 19:47:00,
2013-08-20 13:52:00,86.0,50.1,30.62,North,355,0.0,6.0,29,0.00,,,0.00,800.00,VWS V14.00,2013-08-20 19:52:00,
2013-08-20 13:57:00,86.2,48.3,30.62,North,360,0.0,9.0,27,0.00,,,0.00,802.00,VWS V14.00,2013-08-20 19:57:00,
2013-08-20 14:02:00,86.4,48.5,30.61,North,355,2.0,9.0,27,0.00,,,0.00,800.00,VWS V14.00,2013-08-20 20:02:00,
2013-08-20 14:07:00,86.2,52.0,30.61,NNW,346,0.0,9.0,31,0.00,,,0.00,798.00,VWS V14.00,2013-08-20 20:07:00,
2013-08-20 14:12:00,85.9,47.1,30.60,NNW,345,0.0,1.0,26,0.00,,,0.00,796.00,VWS V14.00,2013-08-20 20:12:00,
2013-08-20 14:17:00,86.6,47.7,30.59,NNW,346,0.0,1.0,26,0.00,,,0.00,795.00,VWS V14.00,2013-08-20 20:17:00,
2013-08-20 14:22:00,87.0,47.0,30.60,NNW,346,0.0,5.0,25,0.00,,,0.00,793.00,VWS V14.00,2013-08-20 20:22:00,
2013-08-20 14:27:00,87.5,49.4,30.59,NNW,346,0.0,0.0,27,0.00,,,0.00,793.00,VWS V14.00,2013-08-20 20:27:00,
2013-08-20 14:32:00,87.8,49.7,30.58,SSE,149,2.0,10.0,27,0.00,,,0.00,793.00,VWS V14.00,2013-08-20 20:32:00,
2013-08-20 14:37:00,87.5,49.4,30.58,SSE,153,2.0,10.0,27,0.00,,,0.00,780.00,VWS V14.00,2013-08-20 20:37:00,
2013-08-20 14:42:00,87.3,48.3,30.58,SSE,157,0.0,7.0,26,0.00,,,0.00,782.00,VWS V14.00,2013-08-20 20:42:00,
2013-08-20 14:47:00,87.3,48.3,30.59,SSE,159,4.0,8.0,26,0.00,,,0.00,775.00,VWS V14.00,2013-08-20 20:47:00,
2013-08-20 14:52:00,87.2,46.0,30.59,South,182,0.0,8.0,24,0.00,,,0.00,759.00,VWS V14.00,2013-08-20 20:52:00,
2013-08-20 14:57:00,87.6,49.5,30.57,South,172,0.0,2.0,27,0.00,,,0.00,756.00,VWS V14.00,2013-08-20 20:57:00,
2013-08-20 15:02:00,88.1,48.9,30.57,South,176,1.0,2.0,26,0.00,,,0.00,754.00,VWS V14.00,2013-08-20 21:02:00,
2013-08-20 15:07:00,88.4,48.1,30.57,SSE,164,3.0,3.0,25,0.00,,,0.00,752.00,VWS V14.00,2013-08-20 21:07:00,
2013-08-20 15:12:00,88.7,48.4,30.59,SW,219,0.0,2.0,25,0.00,,,0.00,749.00,VWS V14.00,2013-08-20 21:12:00,
2013-08-20 15:17:00,89.0,48.7,30.59,SSE,157,2.0,6.0,25,0.00,,,0.00,742.00,VWS V14.00,2013-08-20 21:17:00,
2013-08-20 15:22:00,88.5,48.2,30.59,SSE,147,2.0,6.0,25,0.00,,,0.00,733.00,VWS V14.00,2013-08-20 21:22:00,
2013-08-20 15:27:00,88.5,46.0,30.59,SSE,148,1.0,1.0,23,0.00,,,0.00,719.00,VWS V14.00,2013-08-20 21:27:00,
2013-08-20 15:32:00,88.3,47.0,30.59,NW,309,1.0,5.0,24,0.00,,,0.00,717.00,VWS V14.00,2013-08-20 21:32:00,
2013-08-20 15:37:00,88.0,49.9,30.58,ENE,76,0.0,5.0,27,0.00,,,0.00,714.00,VWS V14.00,2013-08-20 21:37:00,
2013-08-20 15:42:00,87.7,47.5,30.58,NW,317,0.0,10.0,25,0.00,,,0.00,710.00,VWS V14.00,2013-08-20 21:42:00,
2013-08-20 15:47:00,87.9,47.7,30.58,NNW,330,0.0,10.0,25,0.00,,,0.00,701.00,VWS V14.00,2013-08-20 21:47:00,
2013-08-20 15:52:00,87.7,49.6,30.58,West,279,6.0,14.0,27,0.00,,,0.00,689.00,VWS V14.00,2013-08-20 21:52:00,
2013-08-20 15:57:00,87.5,46.3,30.59,WNW,295,3.0,9.0,24,0.00,,,0.00,687.00,VWS V14.00,2013-08-20 21:57:00,
2013-08-20 16:03:00,87.4,47.3,30.59,WNW,298,5.0,11.0,25,0.00,,,0.00,677.00,VWS V14.00,2013-08-20 22:03:00,
2013-08-20 16:08:00,87.4,49.3,30.58,WNW,286,10.0,15.0,27,0.00,,,0.00,668.00,VWS V14.00,2013-08-20 22:08:00,
2013-08-20 16:13:00,87.4,45.1,30.58,West,268,7.0,13.0,23,0.00,,,0.00,657.00,VWS V14.00,2013-08-20 22:13:00,
2013-08-20 16:18:00,87.2,46.0,30.58,West,270,10.0,17.0,24,0.00,,,0.00,643.00,VWS V14.00,2013-08-20 22:18:00,
2013-08-20 16:23:00,87.1,48.1,30.58,WNW,292,11.0,17.0,26,0.00,,,0.00,635.00,VWS V14.00,2013-08-20 22:23:00,
2013-08-20 16:28:00,86.8,47.8,30.58,West,263,6.0,13.0,26,0.00,,,0.00,624.00,VWS V14.00,2013-08-20 22:28:00,
2013-08-20 16:33:00,86.6,46.6,30.58,West,265,9.0,20.0,25,0.00,,,0.00,612.00,VWS V14.00,2013-08-20 22:33:00,
2013-08-20 16:38:00,86.6,44.4,30.58,WNW,296,10.0,20.0,23,0.00,,,0.00,599.00,VWS V14.00,2013-08-20 22:38:00,
2013-08-20 16:43:00,86.6,43.3,30.57,WNW,287,4.0,13.0,22,0.00,,,0.00,594.00,VWS V14.00,2013-08-20 22:43:00,
2013-08-20 16:48:00,86.6,47.7,30.57,WNW,289,9.0,17.0,26,0.00,,,0.00,584.00,VWS V14.00,2013-08-20 22:48:00,
2013-08-20 16:53:00,86.8,43.4,30.58,WNW,287,5.0,17.0,22,0.00,,,0.00,566.00,VWS V14.00,2013-08-20 22:53:00,
2013-08-20 16:58:00,87.1,43.7,30.58,NW,322,1.0,16.0,22,0.00,,,0.00,550.00,VWS V14.00,2013-08-20 22:58:00,
2013-08-20 17:03:00,87.4,48.3,30.58,WSW,237,9.0,16.0,26,0.00,,,0.00,534.00,VWS V14.00,2013-08-20 23:03:00,
2013-08-20 17:08:00,87.8,43.0,30.58,WSW,254,10.0,16.0,21,0.00,,,0.00,524.00,VWS V14.00,2013-08-20 23:08:00,
2013-08-20 17:13:00,87.9,43.1,30.59,West,281,7.0,13.0,21,0.00,,,0.00,512.00,VWS V14.00,2013-08-20 23:13:00,
2013-08-20 17:18:00,88.1,44.5,30.58,West,281,7.0,13.0,22,0.00,,,0.00,496.00,VWS V14.00,2013-08-20 23:18:00,
2013-08-20 17:23:00,88.2,44.6,30.58,WNW,287,7.0,13.0,22,0.00,,,0.00,487.00,VWS V14.00,2013-08-20 23:23:00,
2013-08-20 17:28:00,88.0,45.6,30.58,West,263,9.0,14.0,23,0.00,,,0.00,468.00,VWS V14.00,2013-08-20 23:28:00,
2013-08-20 17:32:00,87.6,48.5,30.58,West,279,4.0,14.0,26,0.00,,,0.00,452.00,VWS V14.00,2013-08-20 23:32:00,
2013-08-20 17:37:00,87.5,47.4,30.58,WNW,297,5.0,14.0,25,0.00,,,0.00,438.00,VWS V14.00,2013-08-20 23:37:00,
2013-08-20 17:42:00,87.3,49.3,30.57,NNW,327,6.0,14.0,27,0.00,,,0.00,413.00,VWS V14.00,2013-08-20 23:42:00,
2013-08-20 17:48:00,87.2,48.2,30.58,WNW,291,0.0,14.0,26,0.00,,,0.00,396.00,VWS V14.00,2013-08-20 23:48:00,
2013-08-20 17:53:00,87.3,51.2,30.58,NNW,334,0.0,14.0,29,0.00,,,0.00,392.00,VWS V14.00,2013-08-20 23:53:00,
2013-08-20 17:58:00,87.5,50.4,30.57,NNW,334,0.0,3.0,28,0.00,,,0.00,376.00,VWS V14.00,2013-08-20 23:58:00,
2013-08-20 18:03:00,87.5,51.4,30.57,North,355,4.0,6.0,29,0.00,,,0.00,357.00,VWS V14.00,2013-08-21 00:03:00,
2013-08-20 18:08:00,87.4,54.8,30.57,North,351,3.0,7.0,33,0.00,,,0.00,346.00,VWS V14.00,2013-08-21 00:08:00,
2013-08-20 18:13:00,87.2,53.8,30.57,NNW,344,5.0,7.0,32,0.00,,,0.00,332.00,VWS V14.00,2013-08-21 00:13:00,
2013-08-20 18:17:00,86.9,54.4,30.57,North,360,3.0,7.0,33,0.00,,,0.00,315.00,VWS V14.00,2013-08-21 00:17:00,
2013-08-20 18:22:00,86.5,54.0,30.57,North,360,5.0,7.0,33,0.00,,,0.00,297.00,VWS V14.00,2013-08-21 00:22:00,
2013-08-20 18:27:00,86.0,53.6,30.58,North,355,4.0,9.0,33,0.00,,,0.00,253.00,VWS V14.00,2013-08-21 00:27:00,
2013-08-20 18:32:00,85.6,54.0,30.58,North,355,4.0,9.0,34,0.00,,,0.00,253.00,VWS V14.00,2013-08-21 00:32:00,
2013-08-20 18:37:00,85.2,53.7,30.58,North,5,5.0,9.0,34,0.00,,,0.00,258.00,VWS V14.00,2013-08-21 00:37:00,
2013-08-20 18:42:00,84.8,54.9,30.58,North,360,6.0,9.0,36,0.00,,,0.00,244.00,VWS V14.00,2013-08-21 00:42:00,
2013-08-20 18:47:00,84.2,54.4,30.59,North,360,6.0,9.0,36,0.00,,,0.00,230.00,VWS V14.00,2013-08-21 00:47:00,
2013-08-20 18:52:00,83.6,54.6,30.59,North,360,9.0,10.0,37,0.00,,,0.00,220.00,VWS V14.00,2013-08-21 00:52:00,
2013-08-20 18:57:00,83.1,53.4,30.59,North,5,7.0,8.0,36,0.00,,,0.00,204.00,VWS V14.00,2013-08-21 00:57:00,
2013-08-20 19:02:00,82.8,51.6,30.60,North,360,0.0,10.0,34,0.00,,,0.00,193.00,VWS V14.00,2013-08-21 01:02:00,
2013-08-20 19:07:00,82.7,50.7,30.60,North,355,4.0,10.0,33,0.00,,,0.00,179.00,VWS V14.00,2013-08-21 01:07:00,
2013-08-20 19:12:00,82.6,53.0,30.60,NNW,342,0.0,7.0,36,0.00,,,0.00,165.00,VWS V14.00,2013-08-21 01:12:00,
2013-08-20 19:17:00,82.1,49.3,30.61,North,11,0.0,7.0,32,0.00,,,0.00,155.00,VWS V14.00,2013-08-21 01:17:00,
2013-08-20 19:19:00,82.0,48.4,30.61,North,5,3.0,7.0,31,0.00,,,0.00,149.00,VWS V14.00,2013-08-21 01:19:00,
2013-08-20 19:24:00,81.5,48.0,30.61,North,360,4.0,4.0,31,0.00,,,0.00,137.00,VWS V14.00,2013-08-21 01:24:00,
2013-08-20 19:29:00,81.2,46.8,30.61,North,360,4.0,6.0,30,0.00,,,0.00,127.00,VWS V14.00,2013-08-21 01:29:00,
2013-08-20 19:34:00,81.1,48.5,30.61,North,360,0.0,6.0,32,0.00,,,0.00,114.00,VWS V14.00,2013-08-21 01:34:00,
2013-08-20 19:39:00,81.0,47.5,30.61,North,360,0.0,0.0,31,0.00,,,0.00,102.00,VWS V14.00,2013-08-21 01:39:00,
2013-08-20 19:44:00,81.1,49.3,30.62,North,360,0.0,0.0,33,0.00,,,0.00,88.00,VWS V14.00,2013-08-21 01:44:00,
2013-08-20 19:49:00,80.9,49.1,30.62,North,360,0.0,0.0,33,0.00,,,0.00,72.00,VWS V14.00,2013-08-21 01:49:00,
2013-08-20 19:54:00,80.7,48.1,30.62,North,360,0.0,0.0,32,0.00,,,0.00,58.00,VWS V14.00,2013-08-21 01:54:00,
2013-08-20 19:59:00,80.5,48.8,30.62,North,360,0.0,0.0,33,0.00,,,0.00,47.00,VWS V14.00,2013-08-21 01:59:00,
2013-08-20 20:04:00,80.3,48.6,30.63,North,360,0.0,1.0,33,0.00,,,0.00,39.00,VWS V14.00,2013-08-21 02:04:00,
2013-08-20 20:09:00,79.8,46.5,30.62,North,360,0.0,0.0,31,0.00,,,0.00,23.00,VWS V14.00,2013-08-21 02:09:00,
2013-08-20 20:14:00,79.2,47.7,30.61,North,360,0.0,0.0,33,0.00,,,0.00,12.00,VWS V14.00,2013-08-21 02:14:00,
2013-08-20 20:19:00,78.7,45.6,30.62,North,360,0.0,1.0,31,0.00,,,0.00,12.00,VWS V14.00,2013-08-21 02:19:00,
2013-08-20 20:24:00,77.9,44.9,30.63,North,360,0.0,0.0,31,0.00,,,0.00,9.00,VWS V14.00,2013-08-21 02:24:00,
2013-08-20 20:29:00,77.4,46.1,30.63,North,360,0.0,0.0,33,0.00,,,0.00,7.00,VWS V14.00,2013-08-21 02:29:00,
2013-08-20 20:34:00,77.0,44.1,30.64,North,360,0.0,1.0,31,0.00,,,0.00,5.00,VWS V14.00,2013-08-21 02:34:00,
2013-08-20 20:39:00,76.3,44.3,30.65,North,360,0.0,1.0,32,0.00,,,0.00,0.00,VWS V14.00,2013-08-21 02:39:00,
2013-08-20 20:44:00,75.6,43.7,30.65,North,360,0.0,1.0,32,0.00,,,0.00,0.00,VWS V14.00,2013-08-21 02:44:00,
2013-08-20 20:49:00,75.2,44.9,30.65,North,360,0.0,1.0,34,0.00,,,0.00,0.00,VWS V14.00,2013-08-21 02:49:00,
2013-08-20 20:54:00,74.6,42.0,30.66,North,360,0.0,0.0,31,0.00,,,0.00,0.00,VWS V14.00,2013-08-21 02:54:00,
2013-08-20 20:59:00,74.2,42.5,30.67,North,360,0.0,0.0,32,0.00,,,0.00,0.00,VWS V14.00,2013-08-21 02:59:00,
2013-08-20 21:04:00,73.8,41.3,30.67,North,360,0.0,1.0,31,0.00,,,0.00,0.00,VWS V14.00,2013-08-21 03:04:00,
2013-08-20 21:09:00,73.5,41.9,30.67,North,360,0.0,0.0,32,0.00,,,0.00,0.00,VWS V14.00,2013-08-21 03:09:00,
2013-08-20 21:14:00,73.2,43.2,30.65,North,360,0.0,2.0,34,0.00,,,0.00,0.00,VWS V14.00,2013-08-21 03:14:00,
2013-08-20 21:19:00,73.0,41.4,30.65,North,360,0.0,2.0,32,0.00,,,0.00,0.00,VWS V14.00,2013-08-21 03:19:00,
2013-08-20 21:24:00,72.8,41.3,30.66,North,360,0.0,0.0,32,0.00,,,0.00,0.00,VWS V14.00,2013-08-21 03:24:00,
2013-08-20 21:29:00,72.6,42.7,30.66,North,360,0.0,0.0,34,0.00,,,0.00,0.00,VWS V14.00,2013-08-21 03:29:00,
2013-08-20 21:34:00,72.3,40.0,30.67,North,360,0.0,1.0,31,0.00,,,0.00,0.00,VWS V14.00,2013-08-21 03:34:00,
2013-08-20 21:39:00,72.2,40.7,30.67,North,360,0.0,0.0,32,0.00,,,0.00,0.00,VWS V14.00,2013-08-21 03:39:00,
2013-08-20 21:44:00,72.2,40.7,30.67,North,360,0.0,1.0,32,0.00,,,0.00,0.00,VWS V14.00,2013-08-21 03:44:00,
2013-08-20 21:49:00,72.2,39.9,30.67,North,360,0.0,3.0,31,0.00,,,0.00,0.00,VWS V14.00,2013-08-21 03:49:00,
2013-08-20 21:54:00,72.5,40.2,30.67,North,360,0.0,2.0,31,0.00,,,0.00,0.00,VWS V14.00,2013-08-21 03:54:00,
2013-08-20 21:59:00,72.7,42.0,30.66,North,360,0.0,2.0,33,0.00,,,0.00,0.00,VWS V14.00,2013-08-21 03:59:00,
2013-08-20 22:01:00,72.7,41.2,30.67,North,360,0.0,2.0,32,0.00,,,0.00,0.00,VWS V14.00,2013-08-21 04:01:00,
2013-08-20 22:06:00,72.9,41.3,30.67,North,360,0.0,3.0,32,0.00,,,0.00,0.00,VWS V14.00,2013-08-21 04:06:00,
2013-08-20 22:11:00,72.8,42.8,30.64,North,360,0.0,0.0,34,0.00,,,0.00,0.00,VWS V14.00,2013-08-21 04:11:00,
2013-08-20 22:16:00,72.6,41.9,30.64,North,360,0.0,3.0,33,0.00,,,0.00,0.00,VWS V14.00,2013-08-21 04:16:00,
2013-08-20 22:21:00,72.5,41.0,30.64,North,360,4.0,5.0,32,0.00,,,0.00,0.00,VWS V14.00,2013-08-21 04:21:00,
2013-08-20 22:26:00,72.5,41.0,30.64,North,360,2.0,4.0,32,0.00,,,0.00,0.00,VWS V14.00,2013-08-21 04:26:00,
2013-08-20 22:31:00,72.2,42.3,30.65,NW,321,1.0,6.0,34,0.00,,,0.00,0.00,VWS V14.00,2013-08-21 04:31:00,
2013-08-20 22:36:00,71.8,42.0,30.65,NW,321,0.0,6.0,34,0.00,,,0.00,0.00,VWS V14.00,2013-08-21 04:36:00,
2013-08-20 22:41:00,71.5,42.4,30.65,NW,321,0.0,0.0,35,0.00,,,0.00,0.00,VWS V14.00,2013-08-21 04:41:00,
2013-08-20 22:46:00,71.3,41.5,30.65,NW,321,0.0,0.0,34,0.00,,,0.00,0.00,VWS V14.00,2013-08-21 04:46:00,
2013-08-20 22:51:00,71.0,40.5,30.66,NW,321,0.0,0.0,33,0.00,,,0.00,0.00,VWS V14.00,2013-08-21 04:51:00,
2013-08-20 22:56:00,70.6,45.8,30.65,NW,321,0.0,1.0,41,0.00,,,0.00,0.00,VWS V14.00,2013-08-21 04:56:00,
2013-08-20 23:01:00,69.6,43.6,30.67,NW,321,0.0,1.0,39,0.00,,,0.00,0.00,VWS V14.00,2013-08-21 05:01:00,
2013-08-20 23:06:00,68.6,44.0,30.66,NW,321,0.0,1.0,41,0.00,,,0.00,0.00,VWS V14.00,2013-08-21 05:06:00,
2013-08-20 23:11:00,67.5,42.3,30.65,NW,321,0.0,0.0,40,0.00,,,0.00,0.00,VWS V14.00,2013-08-21 05:11:00,
2013-08-20 23:16:00,66.7,44.1,30.66,NW,321,0.0,3.0,44,0.00,,,0.00,0.00,VWS V14.00,2013-08-21 05:16:00,
2013-08-20 23:21:00,65.6,43.1,30.66,NW,321,0.0,3.0,44,0.00,,,0.00,0.00,VWS V14.00,2013-08-21 05:21:00,
2013-08-20 23:26:00,64.6,42.8,30.67,NW,321,0.0,0.0,45,0.00,,,0.00,0.00,VWS V14.00,2013-08-21 05:26:00,
2013-08-20 23:31:00,63.8,40.9,30.67,NW,321,0.0,1.0,43,0.00,,,0.00,0.00,VWS V14.00,2013-08-21 05:31:00,
2013-08-20 23:36:00,63.6,41.9,30.67,NW,321,0.0,1.0,45,0.00,,,0.00,0.00,VWS V14.00,2013-08-21 05:36:00,
2013-08-20 23:41:00,63.4,42.3,30.68,NW,321,0.0,0.0,46,0.00,,,0.00,0.00,VWS V14.00,2013-08-21 05:41:00,
2013-08-20 23:46:00,63.1,43.1,30.68,NW,321,0.0,0.0,48,0.00,,,0.00,0.00,VWS V14.00,2013-08-21 05:46:00,
2013-08-20 23:51:00,62.7,44.3,30.68,NW,321,0.0,2.0,51,0.00,,,0.00,0.00,VWS V14.00,2013-08-21 05:51:00,
2013-08-20 23:57:00,62.4,44.0,30.68,NW,321,0.0,0.0,51,0.00,,,0.00,0.00,VWS V14.00,2013-08-21 05:57:00,